Hauptseite
METAR-TAF:

METAR-TAF

Flughäfen :

Militärflugplatz Meiringen

Meiringen, Schweiz

Breite: 46-44-25N, Länge: 8-06-36E, Höhe: 577 m

Beobachtung

Neuester Wetterbericht von vor 23 Minuten, um 03:20 UTC
Wind 4 kt aus Ost
Temperatur 6°C
Luftfeuchtigkeit 87%
Luftdruck 1019 hPa
Sichtweite 10 km oder mehr

METAR: LSMM 160320Z AUTO 09004KT 9999NDV NCD 06/04 Q1019 RMK

Zeit: 05:43 (03:43 UTC)


TAF: fehlend

Wetterbeobachtungen und Prognosen von mehr als 4000 Flughäfen (METAR und TAF Bericht).

Die verfügbaren Stationen werden durch gelbe und rote Markierungen auf der Karte dargestellt.

Führen Sie die Maus auf sie, um den Namen der Station zu sehen.

Darauf klicken, um die Beobachtung von Wetterbeobachtungen und Prognosen zu sehen.

Um die Karte zu ändern : klicken Sie auf den grünen Tasten mit einem schwarzen Kreuz Zum Vergrößern, auf den grünen Button mit einem Gedankenstrich zu verkleinern, oder auf die grünen Pfeile für benachbarte Karten.


METAR-TAF: